{"data":{"norad_id":64523,"intl_designator":"2025-134Z","name":"KUIPER-00063","alt_names":[],"object_type":"PAYLOAD","status":"ACTIVE","operator":null,"country":"US","launch_date":"2025-06-23","launch_site_code":"AFETR","launch_vehicle":null,"mission":null,"orbit_class":"UNKNOWN","rcs_meters":null,"size_class":null,"mass_kg":null,"dimensions":null,"purposes":[],"wikipedia_slug":null,"has_3d_model":false,"image_url":null,"decayed_at":null,"tle_current":{"epoch":"2026-09-21T17:33:25.208928Z","epoch_age_seconds":75400,"freshness":"FRESH","line1":"1 64523U 25134Z   26264.73154177  .00001717  00000+0  25411-3 0  9991","line2":"2 64523  51.9026  91.2490 0000669 110.6611 249.4424 14.79939822 69038","mean_motion":14.79939822,"eccentricity":6.69e-5,"inclination_deg":51.9026,"raan_deg":91.249,"arg_perigee_deg":110.6611,"mean_anomaly_deg":249.4424,"bstar":0.00025411,"rev_number":6903,"period_min":97.301253645163,"perigee_km":629.04528203603,"apogee_km":629.9829057524,"semimajor_km":7007.6510938942,"source":"CELESTRAK","updated_at":"2026-09-22T09:00:29.812964Z"}}}